Wind_Speed
21 17 17 16 14 9 9 13 14 11 7 4 11 11 15 14 16 18 22 24 22 23 23 26 28 30 31 30 32 31 33 35 36 38 39 41 43 48 48 46 45 52 52
18 15 13 12 12 13 10 12 11 10 0 5 15 9 11 15 20 20 20 26 23 22 24 22 22 31 34 34 33 33 30 29 32 34 37 38 44 40 43 47 48 44 52
21 18 16 12 15 14 11 15 11 7 6 10 12 8 12 17 23 20 19 21 25 26 29 26 26 23 30 35 35 31 31 32 29 34 36 36 38 39 44 46 51 49 55
23 21 16 17 17 15 13 13 11 3 8 14 13 11 13 16 19 18 19 23 26 25 27 26 24 28 26 28 34 34 36 36 37 37 36 35 36 40 41 44 49 51 52
19 18 21 16 17 15 15 15 9 10 10 16 13 13 13 14 10 17 17 23 25 23 23 27 29 26 22 28 29 31 34 33 34 34 33 33 41 39 43 45 44 43 49
24 21 16 18 16 17 17 12 11 13 13 17 14 9 8 9 7 11 15 18 22 27 27 24 22 25 27 29 29 29 31 29 28 30 29 35 37 42 45 47 46 45 44
16 12 16 21 19 20 17 13 16 15 16 16 13 9 7 5 7 7 13 17 20 23 24 28 26 22 22 24 26 27 29 29 25 22 28 25 29 31 37 37 42 43 44
13 14 19 22 22 17 16 17 17 15 17 13 15 9 6 9 10 15 14 18 19 19 21 20 21 21 18 19 25 25 27 28 25 15 21 21 27 29 29 24 33 33 39
13 17 21 22 20 19 19 20 16 16 20 16 13 9 7 10 13 15 17 18 17 19 18 21 21 25 23 22 20 20 19 22 26 22 20 22 22 24 21 28 27 22 27
15 19 22 23 22 21 24 20 16 17 16 17 11 6 11 8 12 12 13 14 14 16 17 19 21 23 24 22 20 21 17 16 21 31 23 28 20 15 14 17 25 20 26
19 20 21 23 26 21 24 19 18 15 16 16 15 15 13 13 11 11 14 13 12 12 13 15 17 19 21 21 21 27 29 30 26 22 24 29 24 18 19 8 18 12 28
20 19 21 23 23 20 23 19 17 12 17 19 19 15 10 12 10 8 11 12 10 10 11 11 13 15 20 22 20 20 21 20 22 21 20 23 24 24 20 15 7 11 17
20 21 26 21 22 24 24 19 16 15 20 23 18 14 13 8 7 7 6 6 5 6 8 10 11 13 15 17 17 13 10 14 20 18 20 21 15 23 18 19 20 15 12
25 26 23 21 28 25 23 20 17 16 22 19 13 12 11 8 4 7 5 5 3 1 5 7 8 10 14 15 15 12 11 11 13 16 16 20 20 13 19 21 24 21 14
22 19 18 22 21 22 21 19 18 18 19 16 11 11 10 9 5 5 6 5 5 6 7 8 6 6 8 10 12 11 11 10 12 10 8 11 15 12 15 17 14 19 17
23 21 26 23 21 21 21 18 18 17 17 16 14 11 10 7 6 4 4 6 8 8 8 9 7 8 7 8 8 9 10 15 11 7 8 7 11 8 7 8 16 21 14
20 18 23 24 25 23 22 22 19 16 15 16 16 14 12 11 8 7 9 9 9 8 11 12 11 12 10 10 10 10 10 12 9 11 11 11 9 4 9 3 7 14 12
15 16 19 23 25 25 21 16 19 17 14 14 15 17 16 18 16 15 14 13 15 17 16 14 13 16 15 11 11 12 12 13 12 12 12 12 8 10 9 8 6 2 4
13 14 18 19 21 21 19 15 16 15 17 19 19 19 22 22 22 21 19 18 17 17 20 19 19 19 17 15 13 15 13 12 12 14 16 16 13 12 10 6 4 5 3
14 13 14 15 15 15 12 12 12 16 16 17 17 18 17 18 20 19 18 18 17 18 19 20 19 17 15 14 14 14 18 14 10 14 18 21 15 16 15 10 9 8 4
12 12 12 12 13 13 13 12 10 11 15 17 18 19 20 19 18 20 24 25 24 23 21 19 19 18 17 15 14 7 8 18 12 10 14 23 17 18 16 16 16 12 7
14 14 14 16 17 17 16 14 14 14 16 18 19 20 20 21 22 24 26 27 25 25 24 21 19 20 20 18 16 17 19 23 17 16 19 21 19 18 18 15 13 14 11
16 16 17 17 16 15 16 17 19 20 19 20 21 20 21 22 24 26 26 26 27 26 24 22 22 22 21 19 20 20 21 22 20 19 22 22 21 21 20 15 14 13 11
19 19 20 21 21 21 21 20 20 19 19 18 18 14 14 15 14 16 19 19 19 20 18 18 19 20 21 20 20 20 20 21 22 22 20 21 20 21 18 15 15 14 13
18 19 20 21 21 21 20 21 22 21 19 16 15 17 17 17 17 16 9 9 10 11 11 13 13 14 15 17 17 17 18 20 21 19 20 18 18 18 17 15 15 16 14
11 11 14 17 18 16 13 12 12 12 14 15 16 17 17 17 17 16 15 14 14 10 7 7 7 8 10 11 14 14 15 15 16 17 21 18 21 23 21 17 18 16 16
Wind_Direction
267 269 263 268 263 264 271 279 294 308 320 25 61 56 73 65 75 63 63 52 49 41 52 55 55 50 53 59 57 65 62 76 79 68 60 59 60 61 64 62 63 59 52
273 264 243 256 265 274 268 275 277 299 297 78 88 74 83 71 71 70 68 49 44 40 44 52 61 58 54 56 53 65 67 60 63 56 54 55 50 50 55 48 46 63 60
274 262 242 243 260 263 260 265 262 287 148 124 113 94 94 78 77 77 57 49 52 49 62 59 64 56 54 50 52 64 57 58 55 57 52 57 57 55 53 55 47 46 56
265 260 248 254 248 256 255 248 255 208 157 144 131 110 93 79 73 60 63 70 56 56 62 57 63 62 53 43 50 49 49 47 46 43 38 60 59 60 58 55 53 48 40
236 264 267 256 239 234 236 232 235 166 164 148 139 116 103 73 51 51 75 74 58 58 57 76 68 62 59 59 53 54 52 45 43 45 46 36 42 59 56 53 49 46 44
268 273 243 223 224 208 210 207 183 168 165 158 158 126 103 71 60 60 92 80 64 68 72 79 74 68 60 60 56 55 54 60 40 31 43 55 49 50 35 39 44 44 41
259 234 221 209 204 195 196 191 174 163 160 164 169 138 104 71 79 70 108 84 75 70 73 71 68 66 63 58 45 52 58 49 57 34 37 44 56 43 37 24 28 35 41
237 211 192 178 175 177 181 173 158 152 155 163 152 141 123 101 91 108 112 102 81 70 77 73 64 66 60 39 52 57 50 52 43 26 36 46 57 46 35 11 16 13 25
202 198 190 170 172 173 165 154 151 144 157 160 149 129 123 108 110 120 114 100 87 73 67 66 56 36 46 40 43 52 54 54 52 47 46 44 49 34 15 29 16 1 11
180 185 182 172 168 157 163 146 148 146 156 170 168 126 148 121 122 114 122 111 98 74 64 57 47 36 37 34 63 69 67 55 53 61 39 37 51 56 38 34 33 2 357
169 167 168 166 152 168 159 149 148 147 154 165 174 148 139 134 131 115 120 107 96 84 71 56 45 38 35 58 72 77 65 57 51 46 50 43 33 48 56 66 47 36 41
159 161 163 156 145 173 165 152 150 152 157 154 161 161 136 128 128 122 130 116 102 79 71 56 39 40 38 70 72 72 63 63 54 68 68 54 44 40 43 52 79 41 19
152 151 146 148 172 174 170 151 151 149 154 154 155 143 156 146 153 149 143 149 113 88 51 56 44 46 42 49 59 55 66 47 39 62 69 77 64 45 49 57 59 55 30
142 141 142 151 163 174 166 159 161 160 163 164 141 141 151 153 121 160 156 173 190 46 35 5 22 32 24 17 29 34 41 19 40 64 79 69 67 37 28 49 60 54 43
141 138 151 155 163 171 177 166 170 167 173 183 174 169 177 190 189 184 194 211 244 270 298 317 356 9 359 342 352 20 32 14 35 64 72 64 57 48 11 20 31 50 53
147 152 163 166 179 188 192 190 183 185 191 195 196 200 203 200 214 225 235 249 249 257 266 281 319 321 335 324 349 9 8 4 12 31 28 35 24 29 14 0 20 23 54
156 160 162 166 167 182 190 199 194 195 207 217 220 220 227 239 252 275 278 260 262 274 281 283 300 316 322 308 327 341 338 357 7 14 0 20 319 311 11 40 332 347 28
167 162 166 173 179 179 185 196 203 211 218 228 229 232 244 252 253 273 283 279 268 269 275 285 299 306 306 305 319 321 333 342 355 5 3 349 321 319 343 31 334 8 3
155 165 173 179 183 185 193 205 211 211 226 237 243 251 260 258 257 273 274 270 273 276 273 277 280 291 299 299 311 317 307 316 341 340 343 341 330 334 330 334 343 321 9
153 162 159 161 171 184 204 224 234 224 221 229 240 253 257 256 259 265 267 277 282 281 276 274 275 277 298 289 289 306 317 301 313 328 310 313 325 328 324 315 305 311 317
160 174 174 184 192 206 210 217 219 225 233 238 244 249 253 257 262 267 273 280 279 281 277 280 282 279 285 296 284 283 204 265 297 298 316 295 304 325 321 316 317 298 280
182 187 196 198 202 207 212 220 223 229 237 241 247 252 256 261 266 271 277 278 278 273 277 280 280 277 275 276 278 275 266 277 283 285 282 287 286 301 317 302 306 308 276
199 202 211 213 224 240 243 245 240 239 244 251 255 260 267 270 271 272 274 276 277 277 279 278 274 269 275 278 275 272 273 278 277 274 272 274 277 293 311 297 292 294 290
230 229 229 229 236 247 255 249 240 244 247 250 257 256 272 280 283 284 279 276 274 277 276 271 270 271 272 276 271 266 266 271 274 278 277 279 288 292 294 286 279 277 289
236 242 242 242 242 238 241 244 245 244 245 238 242 256 268 271 281 281 258 283 287 286 276 266 271 272 266 263 271 272 272 274 281 282 287 286 282 279 278 284 275 277 276
218 241 243 243 237 234 232 230 224 231 242 246 262 277 274 271 273 267 272 282 282 288 295 300 297 286 282 282 278 280 276 281 280 269 268 269 260 270 276 277 271 271 269
Height
10991 10991 10991 10990 10991 10992 10992 10992 10991 10991 10990 10989 10987 10987 10986 10986 10984 10983 10981 10979 10977 10974 10971 10968 10965 10963 10960 10956 10954 10951 10948 10946 10944 10941 10938 10935 10932 10929 10925 10922 10918 10915 10912
10988 10988 10988 10989 10990 10990 10991 10991 10990 10991 10990 10989 10989 10989 10989 10988 10986 10985 10984 10981 10978 10976 10973 10971 10968 10966 10964 10960 10958 10955 10952 10950 10947 10945 10943 10940 10937 10933 10931 10926 10924 10917 10913
10983 10985 10985 10986 10988 10988 10990 10990 10990 10990 10989 10990 10991 10991 10991 10990 10988 10988 10986 10984 10980 10978 10975 10974 10972 10970 10967 10965 10962 10959 10956 10954 10952 10949 10947 10944 10941 10938 10935 10932 10928 10925 10917
10979 10981 10983 10984 10985 10986 10988 10988 10990 10989 10989 10991 10992 10993 10993 10991 10990 10990 10988 10986 10983 10981 10979 10977 10975 10974 10972 10969 10966 10963 10961 10959 10957 10954 10952 10947 10944 10942 10939 10935 10931 10928 10923
10974 10977 10979 10980 10981 10983 10985 10986 10988 10989 10990 10992 10993 10994 10993 10993 10992 10992 10990 10988 10986 10984 10983 10981 10979 10977 10975 10972 10969 10967 10964 10962 10961 10959 10957 10954 10950 10945 10943 10940 10936 10932 10929
10969 10970 10973 10975 10977 10980 10982 10985 10987 10988 10989 10992 10994 10994 10993 10993 10992 10992 10992 10990 10989 10987 10985 10983 10982 10980 10978 10975 10973 10970 10968 10966 10964 10962 10961 10958 10955 10951 10949 10945 10943 10939 10935
10963 10966 10969 10972 10975 10977 10981 10983 10985 10987 10989 10992 10994 10995 10995 10993 10993 10993 10993 10992 10992 10990 10988 10986 10985 10983 10981 10978 10976 10973 10970 10969 10968 10967 10964 10962 10958 10956 10953 10951 10948 10944 10941
10960 10963 10967 10969 10973 10976 10978 10981 10984 10986 10988 10992 10994 10996 10995 10994 10995 10995 10995 10994 10993 10992 10991 10989 10988 10986 10984 10982 10979 10976 10974 10972 10971 10971 10969 10965 10963 10960 10956 10954 10951 10949 10947
10958 10962 10966 10968 10972 10975 10979 10982 10983 10986 10989 10992 10995 10995 10996 10996 10996 10997 10996 10995 10995 10994 10993 10992 10990 10988 10986 10983 10981 10978 10977 10977 10975 10971 10972 10969 10964 10963 10960 10957 10954 10952 10950
10958 10961 10964 10968 10972 10977 10980 10983 10984 10987 10989 10992 10995 10996 10997 10997 10998 10998 10997 10996 10997 10996 10995 10994 10993 10990 10988 10985 10983 10981 10980 10979 10977 10975 10975 10971 10967 10965 10963 10960 10957 10955 10953
10958 10961 10964 10967 10972 10978 10980 10983 10985 10987 10989 10992 10995 10997 10999 10997 10998 10998 10999 10999 10999 10998 10997 10996 10995 10993 10991 10988 10987 10985 10983 10981 10979 10977 10976 10974 10970 10967 10964 10962 10960 10957 10954
10958 10961 10964 10968 10973 10980 10982 10984 10986 10988 10990 10993 10996 10997 10998 10998 10998 10999 10999 11000 11001 11000 10999 10998 10996 10995 10993 10991 10989 10987 10986 10984 10982 10981 10978 10977 10974 10971 10968 10965 10962 10959 10956
10959 10962 10966 10970 10974 10979 10982 10984 10987 10990 10992 10995 10996 10997 10999 10999 10999 10999 11000 11001 11001 11001 11000 10999 10997 10996 10995 10992 10991 10989 10988 10986 10984 10982 10980 10978 10976 10975 10972 10968 10964 10962 10959
10962 10965 10968 10971 10975 10979 10982 10985 10989 10991 10993 10995 10996 10998 10999 10999 10999 10999 11001 11001 11001 11001 11001 11000 10999 10998 10996 10995 10993 10992 10989 10988 10986 10985 10982 10980 10978 10977 10975 10971 10968 10966 10964
10964 10967 10971 10973 10977 10981 10984 10987 10990 10993 10995 10996 10997 10999 10999 11000 11000 11001 11002 11002 11002 11002 11001 11000 10999 10999 10997 10995 10994 10991 10990 10989 10987 10986 10985 10982 10980 10978 10976 10973 10971 10968 10966
10967 10969 10972 10976 10979 10982 10985 10988 10991 10993 10995 10997 10998 10999 11000 11001 11001 11003 11003 11003 11003 11001 11000 10999 10999 10998 10997 10995 10994 10993 10992 10990 10990 10987 10986 10983 10981 10979 10977 10975 10973 10971 10969
10970 10971 10974 10977 10980 10983 10986 10989 10991 10994 10996 10997 10998 10998 10999 11001 11002 11003 11003 11002 11002 11002 11000 10999 10998 10996 10996 10994 10995 10995 10994 10993 10992 10990 10987 10985 10983 10980 10978 10976 10975 10973 10972
10972 10974 10976 10979 10982 10984 10987 10990 10992 10994 10995 10996 10996 10997 10999 11000 11001 11002 11001 11000 11001 10999 10998 10997 10996 10995 10995 10996 10996 10996 10997 10995 10993 10993 10991 10988 10985 10983 10979 10976 10975 10974 10973
10974 10976 10979 10981 10984 10986 10988 10990 10992 10993 10994 10995 10996 10996 10996 10997 10997 10998 10997 10996 10997 10997 10996 10995 10994 10994 10993 10995 10997 10996 10995 10993 10993 10993 10993 10990 10988 10984 10980 10977 10974 10973 10972
10975 10978 10980 10982 10984 10987 10988 10989 10989 10990 10991 10992 10993 10993 10993 10993 10994 10994 10994 10994 10994 10993 10992 10991 10991 10991 10992 10994 10995 10995 10998 10996 10995 10994 10983 10986 10987 10984 10978 10976 10974 10973 10971
10976 10978 10980 10982 10984 10985 10987 10987 10987 10988 10989 10989 10989 10989 10990 10991 10992 10991 10991 10991 10990 10989 10988 10988 10988 10989 10990 10992 10991 10994 10976 10992 10991 10991 10975 10980 10987 10983 10978 10975 10972 10971 10970
10976 10978 10979 10981 10982 10984 10985 10986 10986 10986 10986 10986 10987 10988 10988 10988 10988 10987 10987 10986 10985 10984 10984 10984 10983 10983 10986 10988 10988 10987 10988 10986 10987 10987 10985 10986 10984 10980 10976 10973 10970 10968 10968
10976 10977 10978 10980 10982 10983 10984 10984 10984 10984 10985 10985 10985 10986 10986 10986 10984 10982 10982 10981 10980 10980 10979 10978 10978 10978 10979 10982 10983 10983 10982 10980 10981 10984 10982 10980 10977 10975 10972 10970 10968 10966 10964
10974 10975 10976 10977 10978 10979 10980 10980 10980 10981 10981 10982 10983 10983 10983 10981 10979 10977 10976 10974 10974 10974 10974 10974 10974 10975 10975 10977 10977 10978 10979 10978 10977 10978 10977 10975 10972 10970 10969 10967 10965 10964 10962
10969 10971 10972 10972 10973 10974 10976 10977 10977 10977 10978 10979 10980 10980 10978 10976 10975 10975 10973 10972 10971 10970 10970 10970 10970 10972 10971 10972 10972 10973 10973 10971 10971 10970 10969 10968 10966 10965 10964 10963 10962 10961 10959
10965 10967 10967 10968 10968 10970 10972 10973 10974 10975 10976 10976 10975 10975 10974 10974 10973 10973 10973 10971 10970 10971 10970 10970 10970 10970 10969 10968 10969 10969 10967 10966 10964 10964 10963 10963 10962 10962 10961 10960 10960 10958 10957